• In Hungary
  • List of Countries
  • For 7 days
  • Water Temperature
  • Satellite Maps
  • Weather Map
  • News
  • Weather Widgets
  • user-avatar
    Login

    Hourly Weather Irtyubyak

    Today, 26 May, Saturday

    Time Temperature Precipitation Wind Pressure Humidity
    00:00 +5°C° 1.1 mm 6 mps 733 mmHg 86%
    01:00 +5°C° 1.1 mm 6 mps 733 mmHg 85%
    02:00 +4°C° 0.2 mm 6 mps 733 mmHg 85%
    03:00 +4°C° 0.2 mm 6 mps 733 mmHg 84%
    04:00 +3°C° 0.2 mm 6 mps 733 mmHg 84%
    05:00 +4°C° 0 mm 7 mps 734 mmHg 82%
    06:00 +4°C° 0 mm 7 mps 734 mmHg 80%
    07:00 +5°C° 0 mm 8 mps 734 mmHg 78%
    08:00 +6°C° 0 mm 8 mps 735 mmHg 71%
    09:00 +7°C° 0 mm 8 mps 735 mmHg 65%
    10:00 +7°C° 0 mm 8 mps 736 mmHg 58%
    11:00 +9°C° 0 mm 8 mps 736 mmHg 54%
    12:00 +10°C° 0 mm 8 mps 737 mmHg 49%
    13:00 +11°C° 0 mm 7 mps 737 mmHg 45%
    14:00 +11°C° 0 mm 7 mps 738 mmHg 44%
    15:00 +11°C° 0 mm 7 mps 738 mmHg 44%
    16:00 +11°C° 0 mm 7 mps 738 mmHg 44%
    17:00 +10°C° 0 mm 7 mps 739 mmHg 47%
    18:00 +9°C° 0 mm 6 mps 739 mmHg 49%
    19:00 +8°C° 0 mm 6 mps 740 mmHg 51%
    20:00 +7°C° 0 mm 5 mps 740 mmHg 53%
    21:00 +6°C° 0 mm 5 mps 741 mmHg 54%
    22:00 +5°C° 0 mm 4 mps 742 mmHg 55%
    23:00 +4°C° 0 mm 4 mps 742 mmHg 58%

    Tomorrow, 27 May, Sunday

    Time Temperature Precipitation Wind Pressure Humidity
    00:00 +3°C° 0 mm 4 mps 742 mmHg 61%
    01:00 +2°C° 0 mm 3 mps 743 mmHg 63%
    02:00 +1°C° 0 mm 3 mps 743 mmHg 66%
    03:00 +1°C° 0 mm 3 mps 743 mmHg 68%
    04:00 0°C° 0 mm 3 mps 743 mmHg 71%
    05:00 +2°C° 0 mm 3 mps 743 mmHg 66%
    06:00 +4°C° 0 mm 3 mps 743 mmHg 61%
    07:00 +6°C° 0 mm 4 mps 743 mmHg 57%
    08:00 +7°C° 0 mm 4 mps 743 mmHg 53%
    09:00 +9°C° 0 mm 5 mps 743 mmHg 49%
    10:00 +11°C° 0 mm 6 mps 743 mmHg 45%
    11:00 +13°C° 0 mm 6 mps 743 mmHg 46%
    12:00 +14°C° 0 mm 6 mps 742 mmHg 47%
    13:00 +15°C° 0 mm 6 mps 742 mmHg 47%
    14:00 +15°C° 0 mm 6 mps 741 mmHg 49%
    15:00 +16°C° 0 mm 6 mps 741 mmHg 50%
    16:00 +16°C° 0 mm 6 mps 740 mmHg 52%
    17:00 +15°C° 0 mm 6 mps 740 mmHg 57%
    18:00 +15°C° 0 mm 5 mps 739 mmHg 61%
    19:00 +14°C° 0 mm 4 mps 739 mmHg 66%
    20:00 +13°C° 0 mm 4 mps 738 mmHg 69%
    21:00 +11°C° 0 mm 4 mps 738 mmHg 72%
    22:00 +10°C° 0 mm 4 mps 737 mmHg 76%
    23:00 +9°C° 0 mm 5 mps 737 mmHg 75%

    Day after tomorrow, 28 May, Monday

    Time Temperature Precipitation Wind Pressure Humidity
    00:00 +9°C° 0 mm 5 mps 736 mmHg 75%
    01:00 +9°C° 0 mm 5 mps 735 mmHg 75%
    02:00 +9°C° 0 mm 6 mps 734 mmHg 75%
    03:00 +9°C° 0 mm 6 mps 733 mmHg 75%
    04:00 +9°C° 0 mm 7 mps 733 mmHg 75%
    05:00 +9°C° 1.7 mm 7 mps 732 mmHg 81%
    06:00 +8°C° 1.7 mm 7 mps 732 mmHg 87%
    07:00 +8°C° 1.7 mm 7 mps 731 mmHg 93%
    08:00 +8°C° 0.9 mm 7 mps 731 mmHg 91%
    09:00 +9°C° 0.9 mm 6 mps 731 mmHg 88%
    10:00 +9°C° 0.9 mm 5 mps 732 mmHg 86%
    11:00 +10°C° 0.5 mm 6 mps 732 mmHg 79%
    12:00 +11°C° 0.5 mm 6 mps 732 mmHg 71%
    13:00 +13°C° 0.5 mm 6 mps 732 mmHg 64%
    14:00 +11°C° 0.5 mm 6 mps 732 mmHg 66%
    15:00 +11°C° 0.5 mm 6 mps 733 mmHg 67%
    16:00 +10°C° 0.5 mm 6 mps 733 mmHg 69%
    17:00 +9°C° 0.2 mm 6 mps 733 mmHg 72%
    18:00 +8°C° 0.2 mm 5 mps 733 mmHg 75%
    19:00 +7°C° 0.2 mm 5 mps 734 mmHg 77%
    20:00 +6°C° 0.1 mm 5 mps 734 mmHg 80%
    21:00 +5°C° 0.1 mm 4 mps 734 mmHg 83%
    22:00 +4°C° 0.1 mm 4 mps 734 mmHg 86%
    23:00 +3°C° 0 mm 4 mps 734 mmHg 86%

    29 May, Tuesday

    Time Temperature Precipitation Wind Pressure Humidity
    00:00 +3°C° 0 mm 4 mps 734 mmHg 87%
    01:00 +1°C° 0 mm 4 mps 734 mmHg 88%
    02:00 0°C° 0 mm 4 mps 734 mmHg 88%
    03:00 0°C° 0 mm 4 mps 735 mmHg 88%
    04:00 -1°C° 0 mm 4 mps 735 mmHg 88%
    05:00 0°C° 0 mm 4 mps 735 mmHg 83%
    06:00 +1°C° 0 mm 5 mps 735 mmHg 78%
    07:00 +2°C° 0 mm 5 mps 735 mmHg 73%
    08:00 +3°C° 0 mm 6 mps 735 mmHg 67%
    09:00 +4°C° 0 mm 6 mps 735 mmHg 60%
    10:00 +6°C° 0 mm 7 mps 735 mmHg 54%
    11:00 +6°C° 0.1 mm 7 mps 735 mmHg 53%
    12:00 +7°C° 0.1 mm 6 mps 735 mmHg 53%
    13:00 +8°C° 0.1 mm 6 mps 735 mmHg 52%
    14:00 +8°C° 0.1 mm 6 mps 734 mmHg 53%
    15:00 +8°C° 0.1 mm 6 mps 734 mmHg 54%
    16:00 +8°C° 0.1 mm 6 mps 734 mmHg 55%
    17:00 +7°C° 0.1 mm 5 mps 734 mmHg 59%
    18:00 +7°C° 0.1 mm 4 mps 734 mmHg 64%
    19:00 +7°C° 0.1 mm 3 mps 734 mmHg 68%
    20:00 +6°C° 0 mm 2 mps 734 mmHg 72%
    21:00 +4°C° 0 mm 2 mps 734 mmHg 76%
    22:00 +4°C° 0 mm 1 mps 734 mmHg 81%
    23:00 +4°C° 0 mm 1 mps 734 mmHg 80%

    30 May, Wednesday

    Time Temperature Precipitation Wind Pressure Humidity
    00:00 +4°C° 0 mm 1 mps 734 mmHg 80%
    01:00 +4°C° 0 mm 1 mps 733 mmHg 79%
    02:00 +4°C° 0.1 mm 1 mps 733 mmHg 81%
    03:00 +4°C° 0.1 mm 1 mps 733 mmHg 83%
    04:00 +3°C° 0.1 mm 0 mps 733 mmHg 85%
    05:00 +5°C° 0.1 mm 1 mps 733 mmHg 81%
    06:00 +5°C° 0.1 mm 2 mps 733 mmHg 77%
    07:00 +5°C° 0.1 mm 3 mps 733 mmHg 73%
    08:00 +7°C° 0.1 mm 4 mps 733 mmHg 64%
    09:00 +8°C° 0.1 mm 4 mps 734 mmHg 56%
    10:00 +9°C° 0.1 mm 5 mps 734 mmHg 47%
    11:00 +9°C° 0 mm 5 mps 734 mmHg 46%
    12:00 +9°C° 0 mm 5 mps 734 mmHg 46%
    13:00 +10°C° 0 mm 5 mps 734 mmHg 45%
    14:00 +10°C° 0 mm 5 mps 734 mmHg 46%
    15:00 +10°C° 0 mm 5 mps 734 mmHg 47%
    16:00 +10°C° 0 mm 5 mps 734 mmHg 48%
    17:00 +10°C° 0 mm 4 mps 734 mmHg 54%
    18:00 +10°C° 0 mm 3 mps 734 mmHg 59%
    19:00 +9°C° 0 mm 2 mps 734 mmHg 64%
    20:00 +8°C° 0 mm 1 mps 734 mmHg 68%
    21:00 +6°C° 0 mm 1 mps 734 mmHg 73%
    22:00 +3°C° 0 mm 0 mps 734 mmHg 77%
    23:00 +3°C° 0 mm 0 mps 734 mmHg 77%

    31 May, Thursday

    Time Temperature Precipitation Wind Pressure Humidity
    00:00 +3°C° 0 mm 0 mps 734 mmHg 78%
    01:00 +3°C° 0 mm 0 mps 734 mmHg 78%
    02:00 +3°C° 0 mm 0 mps 734 mmHg 79%
    03:00 +2°C° 0 mm 0 mps 734 mmHg 80%
    04:00 +2°C° 0 mm 0 mps 734 mmHg 82%
    05:00 +5°C° 0 mm 1 mps 734 mmHg 75%
    06:00 +7°C° 0 mm 1 mps 733 mmHg 69%
    07:00 +9°C° 0 mm 1 mps 733 mmHg 63%
    08:00 +10°C° 0 mm 2 mps 733 mmHg 58%
    09:00 +11°C° 0 mm 3 mps 733 mmHg 54%
    10:00 +12°C° 0 mm 3 mps 732 mmHg 49%
    11:00 +13°C° 0 mm 4 mps 732 mmHg 52%
    12:00 +13°C° 0 mm 5 mps 731 mmHg 54%
    13:00 +13°C° 0 mm 6 mps 731 mmHg 57%
    14:00 +13°C° 0.1 mm 6 mps 730 mmHg 59%
    15:00 +13°C° 0.1 mm 6 mps 729 mmHg 62%
    16:00 +12°C° 0.1 mm 7 mps 728 mmHg 65%
    17:00 +12°C° 1.4 mm 7 mps 727 mmHg 72%
    18:00 +12°C° 1.4 mm 7 mps 726 mmHg 79%
    19:00 +11°C° 1.4 mm 7 mps 725 mmHg 86%
    20:00 +10°C° 3.8 mm 7 mps 724 mmHg 88%
    21:00 +9°C° 3.8 mm 7 mps 724 mmHg 90%
    22:00 +6°C° 3.8 mm 7 mps 724 mmHg 92%
    23:00 +5°C° 0 mm 6 mps 725 mmHg 91%
    Show more